Location: Csohesd
(46.2500°N, 22.6167°E)
Time: 06:05:17
(UTC+00:00)

USA 215 - Pass Details

Date: 21 October 2021
Orbit: 1099 x 1109 km, 123.0° (Epoch: 20 November)

Event Time Altitude Azimuth Distance (km) Brightness Sun altitude
Exits shadow 17:47:15 22° 41° (NE) 2,206 4.5 -23.9°
Maximum altitude 17:50:42 37° 351° (N) 1,656 4.3 -24.5°
Drops below altitude 10° 17:56:34 10° 287° (WNW) 2,965 6.6 -25.5°
Sets 17:59:14 0° 279° (W) 3,924 7.5 -26.0°
